Regional Weather Roundup
Issued by NWS San Diego, CA

Home | Current Version | Previous Version | Text Only | Print | Product List | Glossary On
Versions: 1 2 3 4 5 6 7 8 9 10 11 12 13 14 15 16 17 18 19 20 21 22 23 24 25 26 27 28 29 30 31 32 33 34 35 36 37 38 39 40 41 42 43 44 45 46 47 48 49 50
000
ASUS46 KSGX 222111
RWRSGX
SAN DIEGO HOURLY WEATHER ROUNDUP
NATIONAL WEATHER SERVICE SAN DIEGO CA
200 PM PDT TUE AUG 22 2017

NOTE: "FAIR" INDICATES FEW OR NO CLOUDS BELOW 12,000 FEET WITH NO
SIGNIFICANT WEATHER AND/OR OBSTRUCTIONS TO VISIBILITY.

CAZ042-043-060-061-PZZ750-775-222200-

GREATER SAN DIEGO AREA

CITY           SKY/WX    TMP DP  RH WIND       PRES   REMARKS
SAN DIEGO AP   MOSUNNY   76  63  64 W14       29.99F
NATIONAL CITY    N/A     76  66  71 W5        29.99F
IMPERIAL BEACH MOSUNNY   74  62  66 NW15      29.99F
BROWN FIELD    SUNNY     77  64  64 W9        29.98F
MIRAMAR MCAS   MOSUNNY   82  62  50 NW10      29.98F
MONTGOMERY FLD SUNNY     80  63  55 W13       29.98F
GILLESPIE FLD  SUNNY     84  63  48 W9        29.97F

$$

NORTH SAN DIEGO COUNTY

CITY           SKY/WX    TMP DP  RH WIND       PRES   REMARKS
CAMP PENDLETON MOSUNNY   68  57  68 SW12      29.96F
OCEANSIDE AP   MOSUNNY   76  65  68 W13G20    29.97F
OCEANSIDE HBR    N/A     70  65  83 W6        30.01F
VISTA            N/A     77  66  68 W2        29.95F
CARLSBAD       SUNNY     73  64  73 W8        29.98F
DEL MAR          N/A     75  66  73 CALM      30.00F
LA JOLLA SCRIP   N/A     70  66  87 W7        29.98F
FALLBROOK        N/A     83  67  57 W2        29.96F
ESCONDIDO        N/A     84  66  54 SW12      29.97F
POWAY            N/A     85  66  54 SW5       29.97F

$$

EAST SAN DIEGO COUNTY

CITY           SKY/WX    TMP DP  RH WIND       PRES   REMARKS
RAMONA         SUNNY     89  62  40 NW10      29.99F
SANTEE LAKES     N/A     84  67  55 SW7       29.94F
LA MESA          N/A     80  65  58 W6        29.90F
JAMUL            N/A     86  67  53 CALM      29.96F
DESCANSO N       N/A     86  56  35 W3        29.87F
CAMPO            N/A     93  49  22 W8        30.00F

$$

ORANGE COUNTY AND THE LOS ANGELES BASIN

CITY           SKY/WX    TMP DP  RH WIND       PRES   REMARKS
JOHN WAYNE AP  MOSUNNY   77  63  61 SW8       29.98F
LAKE FOREST FR   N/A     86  62  44 W7        29.86F
HUNTINGTON BCH   N/A     75  66  74 W10       29.99F
LOS ALAMITOS   SUNNY     79  64  59 SW10      29.97F
FULLERTON      SUNNY     84  65  52 S10       29.95F
LONG BEACH     SUNNY     82  63  52 W10       29.97F
L.A. AP        MOSUNNY   75  64  68 W16       29.99F
L.A. DOWNTOWN  SUNNY     78  62  57 W9        29.98F

$$

THE INLAND EMPIRE

CITY           SKY/WX    TMP DP  RH WIND       PRES   REMARKS
CORONA         SUNNY     89  63  41 W15       29.95F
CHINO          MOSUNNY   95  58  28 W13       29.96F
ONTARIO        MOSUNNY   92  56  29 SW14G22   29.96F
SAN BERNARDINO MOSUNNY   95  54  24 SW8       29.97F HAZE
RIVERSIDE AP   SUNNY     92  61  35 W8        29.96F
MORENO VALLEY    N/A     96  57  26 W6        28.10F HX  95
MARCH ARB      SUNNY     93  52  24 NW12      29.98F
HORSETHIEF CYN   N/A     91  49  23 NE3       29.95F
PERRIS           N/A     93  55  28 W5        29.96F
HEMET EAST       N/A     93  47  20 W6        29.97F
FRENCH VALLEY  FAIR      91  57  31 SW7       29.98F
TEMECULA         N/A     91  61  35 SW6       30.01F

$$

SAN BERNARDINO AND RIVERSIDE COUNTY MOUNTAINS

CITY           SKY/WX    TMP DP  RH WIND       PRES   REMARKS
BIG BEAR AP    CLOUDY    72  34  25 E3        30.33F
PINE COVE        N/A     77  49  37 W2        29.95F

$$

SOUTHERN DESERT INCLUDING THE COACHELLA VALLEY

CITY           SKY/WX    TMP DP  RH WIND       PRES   REMARKS
PALM SPRINGS   SUNNY    108  44  11 SE10      29.88F HX 103
THOUSAND PALMS   N/A    105  48  14 SE6       29.84F HX 102
PALM DESERT      N/A    109  54  16 S3        31.70F HX 108
THERMAL        SUNNY    108  46  12 SE9       29.82F HX 104
BLYTHE         SUNNY    104  52  17 CALM      29.87F HX 101
IMPERIAL AP    MOSUNNY  107  57  19 SE13      29.83F HX 107
EL CENTRO NAS  MOSUNNY  106  49  14 E10G18    29.84F HX 103
YUMA AZ        MOSUNNY  104  50  16 VRB3      29.86F HX 101
MEXICALI       MOSUNNY  104  50  16 E8        29.86F HX 101

$$

UPPER DESERT

CITY           SKY/WX    TMP DP  RH WIND       PRES   REMARKS
VICTORVILLE AP MOSUNNY   93  37  14 SW13      30.06F
HESPERIA         N/A     94  48  20 W9        30.03F
PALMDALE       SUNNY     94  37  13 CALM      30.05F
LANCASTER      SUNNY     98  33  10 MISG      30.04F
EDWARDS AFB    MOSUNNY   95  33  11 NW6       30.01F
DAGGETT        SUNNY     97  42  15 W6        29.99F
29 PALMS N     MOSUNNY   98  43  15 VRB7      30.06F
NEEDLES        SUNNY    108  43  11 NE10      29.91F HX 103

$$

REGIONAL REPORTS

CITY           SKY/WX    TMP DP  RH WIND       PRES   REMARKS
SANTA BARBARA  SUNNY     76  60  57 SW8       29.99F
SANDBERG       SUNNY     90  32  12 S17G24    30.21F
LAS VEGAS NV   MOSUNNY   96  46  18 S5        30.02F
PHOENIX AZ     MOSUNNY  103  47  15 NW3       29.89F HX  99
TIJUANA        SUNNY     77  63  61 W10       30.00F
ENSENADA NW      N/A     72  32  23 W17       29.96F

$$

OFFSHORE ISLANDS

CITY           SKY/WX    TMP DP  RH WIND       PRES   REMARKS
CATALINA ARPT  SUNNY     67  61  81 SW13      30.04F
SAN CLEMENTE I CLOUDY    70  60  70 W13       30.04F
SAN NICOLAS IS MOSUNNY   71  61  70 W13       30.02F

$$

MARINE AND OFFSHORE BUOY REPORTS

STATION/POSITION SKY/WX   TEMP    WIND        PRES    VSBY  SWELL
                          AIR SEA DIR/SP/G                  HT/PER/DIR
                          (F)     (DEG/KT/KT) (MB)    (MI)  (FT/S/D)
TANNER BANKS               65 67  310/ 12/ 16 1016.8          5/320/10
S CLEMENTE BASIN           67 71  290/ 10/ 12 1016.2          2/210/12
SAN NICOLAS IS.               65                N/A           2/220/11
SO. S. ROSA ISLA           64 65  290/ 16/ 17 1016.5          3/290/10
W. S. BARBARA CH           64 64  290/ 16/ 19 1016.1F         3/290/ 9
M. S. BARBARA CH           65 67  260/ 14/ 16 1016.6F         2/260/ 9
S. MONICA BASIN               71  250/ 12/ 14 1015.8F         2/190/13
S PEDRO CHANNEL               69                N/A           2/180/13
CMP PENDLETON NS              70                N/A           2/210/13
OCEANSIDE OFFSHR              71                N/A           2/200/13
TORREY PINES OTR              72                N/A           2/200/13
SAN DIEGO BAY                 74              1015.6F
POINT LOMA SOUTH              69                N/A           2/200/13

$$




USA.gov is the U.S. government's official web portal to all federal, state and local government web resources and services.